Montreal Mirabel, Quebec

8:13 PM EDT on July 23, 2017 (GMT -0400)
Montreal Mirabel

Weather History for CYMX - September, 2012

Change the Weather History Date:

Wednesday, September 26, 2012

  Actual Average Record
Temperature  
Mean Temperature 55 °F -  
Max Temperature 62 °F 62 °F 77 °F (2007)
Min Temperature 46 °F 42 °F 35 °F (1997)
Degree Days  
Heating Degree Days 10    
Growing Degree Days 5 (Base 50)    
Moisture  
Dew Point 51 °F    
Average Humidity 88    
Maximum Humidity 100    
Minimum Humidity 72    
Precipitation  
Precipitation 0.00 in - - ()
Sea Level Pressure  
Sea Level Pressure 29.95 in    
Wind  
Wind Speed 3 mph ()    
Max Wind Speed 12 mph    
Max Gust Speed 21 mph    
Visibility 15.7 miles    
Events Rain    
Averages and records for this station are not official NWS values.
T = Trace of Precipitation, MM = Missing Value Source: Averaged Metar Reports

Daily Weather History Graph

Daily Weather History Graph

Search for Another Location

Airport or City:

Trip Planner

Search our weather history database for the weather conditions in past years. The results will help you decide how hot, cold, wet, or windy it might be!

Date:

Astronomy

Sep. 26, 2012 Rise Set
Actual Time 6:48 AM EDT 6:45 PM EDT
Civil Twilight 6:19 AM EDT 7:14 PM EDT
Nautical Twilight 5:44 AM EDT 7:49 PM EDT
Astronomical Twilight 5:08 AM EDT 8:24 PM EDT
Moon 4:50 PM EDT (9/26) 3:02 AM EDT (9/26)
Length of Visible Light 12h 55m
Length of Day
11h 56m
Waxing Gibbous, 88% of the Moon is Illuminated
Sep 26
Waxing Gibbous
Sep 29
Full
Oct 8
Last Quarter
Oct 15
New
Oct 21
First Quarter

Hourly Weather History & Observations

Time (EDT) Temp. Windchill Dew Point Humidity Pressure Visibility Wind Dir Wind Speed Gust Speed Precip Events Conditions
12:00 AM 50.0 °F - 48.2 °F 94% 29.97 in 25.0 mi NNW 2.3 mph - N/A   Mostly Cloudy
1:00 AM 50.0 °F - 48.2 °F 94% 29.97 in 25.0 mi Calm Calm - N/A   Mostly Cloudy
2:00 AM 50.0 °F - 48.2 °F 94% 29.96 in 25.0 mi Calm Calm - N/A   Mostly Cloudy
3:00 AM 48.2 °F - 48.2 °F 100% 29.94 in 25.0 mi Calm Calm - N/A   Mostly Cloudy
4:00 AM 48.2 °F - 46.4 °F 93% 29.93 in 25.0 mi East 2.3 mph - N/A   Mostly Cloudy
5:00 AM 48.2 °F - 46.4 °F 93% 29.93 in 25.0 mi Calm Calm - N/A   Partly Cloudy
6:00 AM 48.2 °F - 48.2 °F 100% 29.92 in 25.0 mi Calm Calm - N/A   Mostly Cloudy
7:00 AM 50.0 °F - 48.2 °F 94% 29.93 in 25.0 mi Calm Calm - N/A   Overcast
8:00 AM 51.8 °F - 50.0 °F 94% 29.94 in 25.0 mi Calm Calm - N/A   Overcast
9:00 AM 53.6 °F - 51.8 °F 94% 29.93 in 25.0 mi Calm Calm - N/A   Overcast
10:00 AM 57.2 °F - 53.6 °F 88% 29.93 in 25.0 mi Calm Calm - N/A   Overcast
11:00 AM 62.6 °F - 55.4 °F 77% 29.92 in 25.0 mi SSW 11.5 mph - N/A   Overcast
11:50 AM 60.8 °F - 55.4 °F 82% 29.92 in 25.0 mi SSW 11.5 mph - N/A Rain Light Rain
12:00 PM 60.8 °F - 55.4 °F 82% 29.92 in 15.0 mi SW 8.1 mph - N/A Rain Light Rain
1:00 PM 62.6 °F - 57.2 °F 82% 29.92 in 15.0 mi SW 5.8 mph - N/A   Overcast
2:00 PM 62.6 °F - 57.2 °F 82% 29.90 in 15.0 mi WSW 4.6 mph - N/A Rain Light Rain Showers
3:00 PM 60.8 °F - 59.0 °F 94% 29.90 in 15.0 mi SW 2.3 mph - N/A   Overcast
4:00 PM 62.6 °F - 59.0 °F 88% 29.90 in 15.0 mi WSW 3.5 mph - N/A   Mostly Cloudy
4:45 PM 60.8 °F - 53.6 °F 77% 29.91 in 20.0 mi NW 11.5 mph 17.3 mph N/A Rain Light Rain Showers
5:00 PM 59.0 °F - 53.6 °F 82% 29.91 in 15.0 mi NW 4.6 mph - N/A Rain Light Rain Showers
6:00 PM 59.0 °F - 50.0 °F 72% 29.95 in 25.0 mi NNW 11.5 mph 20.7 mph N/A   Mostly Cloudy
7:00 PM 55.4 °F - 46.4 °F 72% 29.97 in 25.0 mi NNW 6.9 mph - N/A   Mostly Cloudy
8:00 PM 51.8 °F - 44.6 °F 76% 30.01 in 25.0 mi NNW 3.5 mph - N/A   Mostly Cloudy
9:00 PM 48.2 °F - 44.6 °F 87% 30.04 in 25.0 mi NNW 3.5 mph - N/A   Partly Cloudy
10:00 PM 48.2 °F - 44.6 °F 87% 30.07 in 25.0 mi NW 2.3 mph - N/A   Mostly Cloudy
11:00 PM 46.4 °F 45.2 °F 46.4 °F 100% 30.09 in 25.0 mi West 3.5 mph - N/A   Mostly Cloudy